Temperature
3 3 3 3 3 3 3 3 3 3 3 3 4 4 4 4 4 4 4 4 4 4 4 4 4 4 4 4 3 3 3 3 3 3 4 4 4 4 4 5 5 5 5
3 3 2 2 2 2 2 2 2 3 3 3 3 3 3 3 3 3 3 3 3 3 3 3 3 3 3 3 3 3 3 3 3 3 3 3 4 4 4 4 4 4 4
2 2 2 2 2 2 2 2 2 2 2 2 2 2 2 2 2 3 2 2 3 3 3 3 3 3 3 3 3 2 2 2 2 2 2 3 3 3 3 3 3 4 4
1 1 1 1 1 1 1 1 1 1 1 1 1 2 2 2 2 2 2 2 2 2 2 2 2 2 2 2 2 2 2 2 2 2 2 2 2 2 2 2 3 3 3
0 0 0 0 0 0 0 0 1 1 1 1 1 1 1 1 1 1 1 1 1 1 1 1 1 1 1 1 1 1 1 1 1 1 1 2 2 2 2 2 2 2 2
-0 -0 -0 -0 -0 -0 -0 -0 -0 -0 0 0 0 0 0 0 0 0 0 0 0 0 0 1 1 1 1 1 1 1 1 1 0 1 1 1 1 1 1 1 1 1 1
-1 -1 -1 -1 -1 -1 -1 -1 -1 -1 -1 -1 -1 -0 -0 -0 -0 -0 -0 -0 -0 -0 -0 -0 -0 0 0 0 0 0 0 -0 -0 -0 0 0 0 0 1 1 1 1 1
-2 -2 -2 -2 -1 -2 -2 -1 -1 -1 -1 -1 -1 -1 -1 -1 -1 -1 -1 -1 -1 -1 -1 -1 -1 -1 -0 -1 -1 -1 -1 -0 -1 -1 -1 -0 -0 -0 -0 -0 -0 -0 0
-2 -2 -2 -2 -2 -2 -2 -2 -2 -2 -2 -2 -2 -2 -2 -2 -2 -2 -2 -2 -2 -2 -2 -2 -1 -1 -1 -1 -1 -1 -1 -1 -1 -1 -1 -1 -1 -1 -1 -1 -1 -1 -1
-2 -2 -3 -3 -3 -3 -2 -2 -2 -2 -2 -2 -2 -2 -2 -2 -2 -2 -2 -2 -2 -2 -2 -2 -2 -2 -2 -2 -2 -2 -2 -1 -1 -1 -1 -1 -1 -1 -1 -1 -1 -1 -2
-3 -3 -3 -3 -3 -3 -3 -3 -3 -3 -3 -3 -3 -3 -3 -3 -3 -3 -3 -3 -3 -3 -3 -3 -3 -3 -2 -2 -2 -2 -2 -2 -2 -2 -2 -2 -2 -1 -1 -2 -2 -2 -2
-3 -3 -3 -3 -4 -4 -4 -4 -4 -4 -4 -4 -3 -3 -3 -3 -3 -3 -3 -3 -3 -3 -3 -3 -3 -3 -3 -3 -3 -3 -3 -3 -3 -3 -3 -2 -2 -2 -2 -2 -2 -2 -3
-3 -3 -4 -4 -4 -4 -4 -4 -4 -4 -4 -4 -4 -4 -4 -4 -4 -4 -4 -4 -4 -4 -4 -4 -3 -3 -3 -3 -3 -3 -3 -3 -3 -3 -3 -3 -3 -3 -3 -3 -3 -3 -3
-4 -4 -4 -4 -4 -4 -5 -5 -5 -5 -5 -5 -5 -5 -5 -4 -4 -4 -4 -4 -4 -4 -4 -4 -4 -4 -4 -4 -3 -3 -3 -3 -4 -4 -4 -4 -4 -4 -4 -3 -3 -4 -3
-4 -4 -5 -5 -5 -5 -5 -5 -5 -5 -5 -5 -5 -5 -5 -5 -5 -5 -5 -5 -5 -5 -5 -4 -4 -4 -4 -4 -4 -4 -4 -4 -4 -4 -4 -4 -4 -4 -4 -4 -4 -4 -4
-5 -5 -5 -5 -5 -6 -6 -5 -5 -6 -6 -6 -6 -6 -6 -5 -5 -5 -5 -5 -5 -5 -5 -5 -5 -5 -5 -5 -5 -4 -4 -4 -4 -5 -5 -5 -5 -5 -5 -4 -4 -4 -4
-5 -5 -5 -6 -6 -6 -6 -6 -6 -5 -6 -6 -6 -6 -6 -6 -6 -6 -5 -5 -5 -5 -5 -5 -5 -5 -5 -5 -5 -5 -5 -5 -5 -5 -5 -5 -5 -5 -5 -5 -5 -5 -5
-5 -6 -6 -6 -6 -6 -6 -6 -6 -6 -6 -6 -6 -6 -6 -6 -6 -6 -6 -5 -5 -5 -5 -6 -6 -6 -6 -6 -6 -5 -5 -5 -5 -5 -5 -5 -5 -5 -5 -5 -5 -5 -5
-6 -6 -6 -6 -6 -7 -7 -7 -7 -7 -6 -6 -6 -6 -6 -6 -6 -6 -6 -6 -6 -6 -6 -6 -6 -6 -6 -6 -6 -6 -6 -6 -5 -5 -5 -5 -5 -5 -5 -5 -5 -5 -5
-6 -6 -6 -7 -7 -7 -7 -7 -7 -7 -7 -7 -7 -7 -6 -6 -6 -6 -6 -6 -6 -6 -6 -6 -6 -6 -6 -6 -6 -6 -6 -6 -6 -6 -6 -6 -6 -5 -5 -5 -5 -5 -5
-6 -6 -7 -7 -7 -7 -7 -7 -7 -7 -7 -7 -7 -7 -7 -7 -7 -7 -6 -7 -7 -7 -7 -6 -6 -6 -6 -6 -6 -6 -6 -6 -6 -6 -6 -6 -6 -6 -6 -6 -6 -6 -6
-7 -7 -7 -7 -7 -7 -7 -7 -7 -7 -7 -7 -7 -7 -7 -7 -7 -7 -7 -7 -7 -7 -7 -7 -6 -6 -7 -7 -7 -7 -6 -6 -6 -6 -6 -6 -6 -6 -6 -6 -6 -6 -6
-7 -7 -7 -7 -8 -8 -7 -7 -8 -7 -7 -7 -7 -7 -7 -7 -7 -7 -7 -7 -7 -7 -7 -7 -7 -6 -7 -7 -7 -7 -6 -6 -6 -6 -6 -6 -6 -6 -6 -6 -6 -6 -6
-7 -7 -7 -8 -8 -8 -8 -8 -8 -8 -7 -7 -7 -7 -7 -7 -7 -7 -7 -7 -7 -7 -7 -7 -7 -6 -6 -6 -7 -6 -6 -6 -6 -6 -6 -6 -6 -6 -6 -6 -6 -6 -6
-7 -8 -8 -8 -8 -8 -8 -8 -8 -8 -7 -7 -7 -7 -7 -7 -7 -7 -7 -7 -7 -7 -7 -7 -7 -7 -6 -7 -6 -6 -6 -6 -6 -6 -6 -6 -6 -6 -6 -6 -6 -6 -6
-8 -8 -8 -8 -8 -8 -8 -8 -8 -8 -8 -8 -7 -7 -7 -7 -7 -7 -7 -7 -7 -7 -7 -7 -7 -7 -7 -7 -6 -6 -6 -6 -6 -6 -6 -6 -6 -6 -7 -7 -7 -7 -7
Wind_Speed
3 3 3 3 3 2 2 2 3 3 3 3 3 2 3 3 3 3 3 3 4 4 4 5 5 5 4 4 4 4 5 5 8 6 4 4 4 5 7 7 8 8 9
3 2 3 3 3 3 3 3 3 3 3 3 2 2 3 2 3 3 4 4 4 5 5 5 5 4 5 5 5 5 5 5 6 8 5 4 5 5 5 5 6 7 8
3 2 3 3 3 3 3 3 3 3 3 3 2 2 3 3 3 3 4 4 5 5 5 6 6 5 6 5 5 5 5 5 5 6 6 4 4 4 4 4 5 5 7
3 3 3 3 3 3 3 3 3 3 3 3 3 3 3 3 3 3 3 4 4 4 4 5 5 5 6 5 5 5 5 5 5 5 5 4 4 3 3 4 5 4 5
3 3 3 3 3 3 3 3 3 3 4 3 3 3 3 3 3 3 4 4 4 4 4 4 4 5 6 5 4 4 4 4 4 5 5 4 4 3 4 3 5 5 5
3 4 4 4 4 4 4 3 3 4 4 3 3 3 3 3 5 6 4 3 3 4 4 4 4 5 6 7 8 7 5 5 5 5 5 6 6 5 4 4 4 4 4
3 4 4 4 4 4 4 4 4 4 4 4 4 4 4 5 6 6 6 4 3 4 4 4 5 5 6 4 6 8 7 8 8 6 7 7 6 6 5 5 5 5 5
3 4 4 4 4 4 4 4 4 4 4 4 4 4 5 5 7 6 7 4 4 4 4 5 5 5 5 5 4 5 5 6 7 6 6 6 6 5 5 6 6 4 4
4 4 4 4 4 4 4 4 4 4 4 4 4 4 5 6 7 7 6 3 4 5 4 4 5 5 8 8 5 5 5 5 7 8 8 8 8 7 5 3 3 3 4
4 5 4 4 4 5 5 4 4 4 4 4 4 4 5 5 7 7 6 3 4 4 4 5 7 7 8 8 6 5 6 6 4 5 5 6 6 6 6 4 3 3 3
4 4 4 4 4 4 4 4 4 4 4 4 5 5 5 6 7 8 7 4 4 4 4 4 5 8 9 8 8 6 7 6 4 4 4 4 3 3 3 3 3 3 4
4 4 4 4 4 3 3 4 3 3 3 4 4 5 4 5 6 6 7 6 6 4 5 4 5 8 8 8 7 6 7 6 3 3 3 4 3 3 3 3 3 3 3
3 3 4 4 4 3 3 3 3 2 2 3 4 4 5 4 5 7 7 7 7 5 4 6 7 7 7 6 6 7 6 3 3 3 4 4 3 3 3 2 2 1 1
3 4 4 3 4 3 3 3 3 3 3 3 4 4 5 5 4 4 4 4 5 5 4 5 6 6 5 5 5 4 3 3 3 4 4 3 3 2 3 2 2 2 2
3 3 3 3 4 4 3 3 3 4 4 4 4 4 5 5 6 7 5 4 3 3 4 3 2 3 3 3 3 3 2 2 3 3 3 3 3 2 3 2 2 2 2
3 3 3 3 3 3 3 4 5 5 7 7 7 7 6 7 9 8 8 7 7 5 3 2 3 3 3 3 3 3 3 3 3 3 3 3 3 3 3 2 2 2 2
3 3 3 3 3 3 3 3 4 5 6 6 7 8 8 9 9 9 8 7 6 5 3 3 3 3 3 3 3 3 3 3 3 3 3 3 3 3 2 2 2 2 2
3 4 3 3 3 3 3 3 3 4 5 4 5 7 8 8 8 8 8 6 4 3 2 3 3 3 4 3 3 3 3 3 3 3 3 3 3 2 2 2 2 2 2
3 3 3 3 3 3 3 3 3 4 4 5 5 5 7 7 7 7 6 3 3 3 3 3 3 3 3 3 3 3 4 3 3 3 3 3 3 2 2 2 2 3 2
3 4 4 3 3 3 3 3 3 4 4 4 4 4 4 4 4 4 3 3 3 3 3 3 3 4 3 4 4 3 3 3 3 3 3 3 3 2 3 3 2 2 2
2 3 4 3 3 3 3 3 3 4 4 4 4 5 6 4 4 4 4 3 3 4 4 3 4 4 4 4 4 4 4 3 3 3 3 3 2 2 2 2 2 2 2
2 2 2 3 3 3 3 3 3 4 4 5 4 5 7 4 3 4 4 4 4 4 4 3 3 4 4 4 4 4 4 4 3 3 3 3 2 2 2 1 1 1 1
2 2 2 3 3 4 4 3 3 4 4 4 4 4 4 4 4 4 4 4 4 4 3 3 3 3 4 4 4 4 4 4 4 4 3 3 2 2 2 2 2 2 1
2 2 2 3 3 3 3 4 4 4 4 4 4 4 4 4 4 5 5 4 4 3 4 3 4 5 6 5 5 6 6 6 5 4 4 4 3 3 2 2 2 2 2
2 2 2 3 3 3 3 4 4 4 4 4 4 4 4 4 5 5 5 4 4 4 4 4 4 5 6 7 7 6 7 7 6 5 4 4 3 3 2 2 2 2 2
2 2 2 3 3 3 3 4 4 4 4 4 4 4 4 5 5 5 5 4 4 4 4 4 5 6 6 6 7 7 7 7 6 5 4 3 3 3 2 2 2 2 2
Wind_Direction
336 327 325 324 329 328 313 303 301 299 302 295 285 282 263 243 230 227 238 240 241 247 244 237 240 234 231 233 234 235 237 240 259 272 268 272 268 272 277 270 266 263 264
331 336 333 329 337 335 323 319 312 302 300 297 293 285 278 268 246 235 242 246 242 247 250 247 250 247 239 236 234 235 237 234 246 265 273 273 267 271 272 276 271 268 265
344 346 344 338 336 328 322 322 321 312 309 308 297 285 282 277 267 255 247 249 246 246 247 246 250 246 249 247 240 239 241 245 243 255 268 271 276 280 279 284 278 271 273
351 348 338 330 325 318 318 323 322 319 312 308 301 291 283 277 271 261 255 257 254 253 251 251 250 244 247 246 244 242 242 245 247 251 262 268 270 276 268 277 286 272 272
344 341 330 327 326 325 323 320 320 320 312 309 309 306 305 295 278 272 259 256 254 257 258 257 253 258 260 259 260 252 244 246 249 254 260 267 265 270 267 266 274 290 280
333 323 324 329 328 324 320 319 321 319 312 313 308 304 301 291 292 291 282 267 263 263 268 269 266 265 271 276 276 272 257 248 250 253 258 256 262 258 258 264 270 285 284
322 318 321 323 320 317 317 321 317 313 314 309 304 300 292 289 292 291 287 274 267 269 272 277 282 282 284 273 275 278 275 271 262 255 257 260 259 254 251 258 256 264 268
314 312 315 315 313 312 313 310 310 310 310 306 303 300 297 293 294 292 291 283 270 266 265 263 268 277 276 274 268 270 270 271 270 265 259 265 267 260 245 250 254 263 282
305 303 304 306 305 306 305 304 306 308 309 305 302 307 303 300 299 295 292 282 275 274 270 268 269 268 274 278 271 268 275 278 282 280 279 280 282 280 265 258 259 274 286
293 295 298 299 296 296 297 300 303 301 302 307 307 307 304 303 306 303 293 271 275 279 281 277 280 277 277 277 265 260 268 274 277 289 291 293 289 288 280 254 242 257 276
295 300 301 299 294 293 299 300 300 304 309 311 309 309 308 307 310 311 302 282 273 278 281 283 282 287 284 278 273 260 262 273 272 272 277 281 287 283 281 265 248 242 255
296 299 300 301 300 306 307 307 305 304 309 309 309 312 311 309 312 310 311 307 298 283 283 283 285 290 287 286 281 273 277 279 271 270 272 274 278 279 277 273 256 249 254
306 305 305 308 308 304 296 298 304 301 298 304 308 310 311 313 310 311 311 309 307 298 291 299 298 297 292 286 285 286 285 274 268 267 271 273 274 273 270 273 274 276 318
303 305 306 310 311 307 300 294 293 290 290 294 298 299 301 304 304 303 301 302 306 305 301 305 312 315 308 299 296 294 279 266 263 265 273 278 282 279 273 270 272 270 291
298 301 307 309 305 305 304 291 287 273 271 281 281 282 291 295 300 307 306 301 299 293 305 306 312 315 312 305 302 297 284 280 278 274 269 276 281 282 285 280 265 263 261
299 304 304 304 303 303 305 309 301 290 293 292 285 286 287 293 302 305 306 307 306 303 303 301 301 304 300 298 296 298 296 286 281 276 271 268 270 273 281 284 272 261 267
271 286 292 294 296 297 299 305 310 315 309 305 305 303 302 304 306 306 306 305 305 304 292 287 285 288 288 290 290 288 289 289 285 275 272 271 271 272 271 271 268 270 278
275 283 288 281 283 287 289 290 292 300 309 311 311 310 310 308 307 307 307 312 312 309 283 276 279 282 286 288 289 289 287 287 282 274 272 270 264 266 271 265 259 259 268
280 283 285 285 282 283 286 288 290 290 293 300 309 312 314 311 309 311 313 306 301 298 291 284 280 279 283 283 285 285 282 280 278 273 270 268 263 259 260 256 258 273 279
280 288 298 295 292 292 292 291 291 291 294 295 299 303 313 315 313 313 312 299 288 285 283 279 280 280 279 279 279 279 278 277 274 268 268 265 260 255 251 249 250 258 267
280 283 293 299 297 293 290 287 286 286 289 289 290 294 305 303 298 297 293 284 275 274 275 275 275 277 276 277 278 277 277 275 271 265 263 263 260 262 253 241 241 245 252
275 281 286 287 293 297 296 292 291 289 287 289 296 299 306 306 295 294 292 285 275 271 271 269 270 268 268 269 269 270 270 271 268 260 257 255 248 249 245 241 240 245 244
273 285 293 296 295 296 305 302 299 294 289 288 292 295 299 294 289 290 291 290 284 281 280 269 270 276 273 270 264 257 260 262 261 253 247 248 245 239 233 235 236 242 239
271 281 289 294 299 299 301 300 297 295 291 287 287 288 288 288 289 291 294 296 293 288 286 277 269 273 276 280 279 273 268 268 266 250 236 232 233 230 223 218 226 236 239
283 286 286 286 288 292 297 300 297 295 293 290 287 287 289 290 291 294 296 296 294 292 290 287 281 278 279 281 282 282 280 276 271 261 239 226 219 215 213 210 219 228 234
292 291 288 287 286 288 291 294 296 295 291 290 289 289 290 291 292 294 295 297 297 296 293 291 286 284 286 288 288 287 284 279 273 263 246 218 203 201 198 208 208 214 211
Height
1476 1475 1475 1475 1475 1474 1474 1473 1473 1473 1472 1472 1471 1472 1472 1472 1473 1474 1474 1475 1475 1476 1478 1478 1479 1480 1480 1481 1481 1481 1482 1482 1479 1478 1479 1479 1478 1478 1477 1477 1476 1475 1474
1473 1472 1472 1472 1471 1471 1470 1470 1469 1469 1469 1468 1467 1467 1468 1468 1468 1469 1469 1470 1470 1471 1472 1473 1473 1474 1474 1475 1475 1475 1475 1476 1475 1472 1472 1472 1472 1472 1471 1470 1469 1469 1468
1470 1469 1469 1468 1468 1467 1467 1466 1465 1465 1464 1464 1464 1463 1463 1464 1464 1464 1464 1465 1465 1466 1466 1467 1467 1468 1468 1469 1469 1469 1469 1469 1469 1467 1465 1466 1466 1465 1464 1463 1463 1462 1462
1467 1466 1466 1465 1464 1463 1463 1462 1461 1461 1460 1460 1460 1459 1459 1459 1460 1460 1460 1460 1460 1460 1461 1461 1461 1462 1462 1462 1462 1463 1463 1463 1463 1461 1460 1459 1459 1459 1458 1457 1456 1456 1455
1464 1463 1462 1462 1461 1460 1459 1458 1458 1457 1457 1456 1456 1456 1455 1455 1455 1455 1456 1456 1455 1455 1456 1456 1456 1456 1456 1456 1456 1456 1457 1457 1457 1456 1455 1454 1453 1453 1453 1452 1451 1450 1449
1461 1460 1460 1459 1458 1457 1456 1455 1455 1454 1453 1453 1452 1452 1451 1451 1451 1451 1451 1451 1451 1450 1450 1450 1450 1450 1451 1451 1451 1451 1452 1451 1451 1450 1449 1448 1448 1448 1448 1447 1446 1445 1443
1458 1458 1457 1456 1455 1454 1453 1452 1451 1451 1450 1449 1449 1448 1448 1447 1447 1447 1447 1447 1446 1446 1445 1445 1445 1445 1445 1445 1445 1446 1446 1446 1446 1445 1444 1443 1443 1443 1443 1442 1441 1440 1438
1456 1455 1454 1453 1452 1451 1450 1449 1448 1448 1447 1446 1445 1445 1444 1444 1444 1443 1443 1442 1442 1441 1441 1440 1439 1439 1440 1440 1440 1439 1439 1439 1440 1439 1439 1438 1438 1438 1438 1438 1436 1435 1433
1453 1452 1451 1450 1449 1448 1447 1447 1446 1445 1444 1443 1442 1442 1441 1441 1440 1440 1439 1438 1437 1436 1436 1435 1435 1434 1434 1435 1435 1434 1434 1433 1434 1434 1434 1433 1433 1433 1433 1432 1431 1429 1427
1450 1449 1449 1448 1447 1446 1445 1444 1443 1442 1441 1440 1439 1439 1438 1437 1436 1436 1435 1434 1433 1432 1431 1430 1430 1429 1430 1430 1430 1429 1428 1428 1428 1428 1428 1428 1428 1427 1427 1427 1426 1425 1423
1447 1447 1446 1445 1444 1443 1442 1441 1440 1439 1438 1437 1436 1435 1434 1433 1432 1432 1431 1430 1429 1427 1426 1425 1425 1425 1425 1425 1425 1424 1423 1424 1423 1423 1422 1422 1422 1422 1422 1422 1421 1421 1420
1444 1444 1443 1442 1441 1440 1439 1438 1437 1436 1434 1433 1432 1431 1431 1430 1429 1427 1427 1426 1425 1423 1422 1421 1420 1420 1420 1420 1420 1420 1419 1419 1419 1418 1417 1417 1417 1417 1417 1417 1417 1416 1416
1441 1440 1439 1438 1438 1437 1436 1434 1433 1432 1431 1430 1429 1428 1427 1426 1425 1424 1423 1422 1421 1419 1418 1417 1416 1416 1415 1415 1415 1415 1415 1414 1414 1413 1413 1412 1412 1412 1412 1412 1412 1412 1411
1437 1437 1436 1435 1434 1433 1432 1431 1430 1429 1428 1427 1426 1424 1423 1422 1421 1420 1419 1417 1416 1415 1414 1413 1412 1412 1411 1411 1411 1410 1410 1410 1410 1409 1409 1409 1409 1409 1408 1408 1407 1407 1406
1434 1434 1433 1432 1431 1430 1429 1428 1427 1426 1426 1425 1423 1422 1420 1419 1418 1417 1416 1414 1413 1412 1411 1410 1409 1408 1407 1407 1406 1406 1406 1406 1406 1406 1405 1405 1405 1404 1404 1404 1403 1403 1402
1431 1430 1429 1429 1427 1427 1426 1425 1424 1423 1422 1421 1420 1419 1417 1416 1415 1413 1412 1411 1410 1409 1408 1406 1405 1405 1404 1403 1403 1403 1403 1402 1402 1402 1401 1401 1401 1400 1400 1400 1400 1399 1399
1429 1427 1426 1425 1424 1423 1422 1421 1420 1420 1419 1417 1416 1415 1414 1412 1411 1409 1408 1407 1406 1406 1405 1403 1402 1402 1401 1401 1400 1400 1399 1399 1399 1398 1398 1398 1397 1397 1397 1396 1396 1396 1395
1426 1425 1424 1423 1422 1421 1419 1418 1417 1415 1414 1413 1412 1411 1410 1408 1407 1406 1405 1404 1402 1402 1401 1400 1399 1399 1399 1398 1397 1397 1396 1396 1396 1395 1395 1395 1394 1394 1394 1393 1393 1393 1392
1423 1422 1421 1420 1419 1418 1416 1415 1414 1413 1411 1409 1408 1407 1406 1405 1403 1402 1401 1400 1398 1398 1397 1397 1396 1396 1396 1395 1395 1394 1394 1393 1393 1392 1392 1392 1392 1391 1391 1391 1390 1390 1390
1420 1419 1418 1417 1416 1415 1413 1412 1411 1410 1408 1406 1405 1403 1402 1401 1399 1398 1397 1396 1395 1395 1394 1394 1393 1393 1393 1392 1392 1391 1391 1390 1390 1390 1389 1389 1389 1389 1388 1388 1388 1388 1387
1417 1416 1415 1414 1413 1412 1410 1409 1408 1407 1405 1404 1402 1401 1400 1398 1397 1395 1394 1393 1392 1391 1391 1390 1390 1390 1389 1389 1389 1388 1388 1387 1387 1387 1386 1386 1386 1386 1386 1386 1385 1385 1385
1415 1414 1413 1411 1410 1409 1408 1406 1405 1404 1402 1401 1399 1398 1397 1396 1394 1393 1391 1390 1389 1388 1388 1388 1387 1387 1386 1386 1386 1385 1385 1384 1384 1384 1384 1383 1383 1383 1383 1383 1383 1383 1383
1412 1411 1410 1409 1408 1406 1405 1404 1402 1401 1399 1398 1397 1396 1394 1393 1391 1390 1389 1387 1386 1386 1385 1385 1384 1384 1384 1383 1383 1383 1382 1382 1382 1381 1381 1381 1381 1381 1381 1381 1381 1381 1381
1410 1409 1408 1406 1405 1404 1402 1401 1400 1398 1397 1396 1394 1393 1392 1390 1389 1388 1386 1385 1384 1383 1383 1382 1382 1381 1381 1380 1380 1380 1379 1379 1379 1379 1378 1378 1378 1378 1378 1378 1379 1379 1379
1408 1406 1405 1404 1403 1401 1400 1399 1397 1396 1395 1393 1392 1390 1389 1388 1386 1385 1384 1383 1382 1381 1380 1380 1379 1378 1378 1377 1377 1377 1376 1376 1376 1376 1376 1376 1376 1376 1376 1376 1377 1377 1377
1405 1404 1403 1402 1401 1399 1398 1396 1395 1394 1392 1391 1389 1388 1387 1385 1384 1383 1382 1381 1380 1379 1378 1377 1377 1376 1375 1374 1374 1374 1374 1373 1373 1373 1373 1373 1373 1374 1374 1374 1375 1375 1375